When you browse on this site, cookies collect data to enhance your experience and personalize the content and advertising you see.
Visit our Privacy Policy to learn more. By continuing to use the site, you agree to this use of cookies and data.
  • In Denmark
  • List of Countries
  • For 7 days
  • Water Temperature
  • Satellite Maps
  • Weather Map
  • Weather Widgets
  • user-avatar
    Login

    Hourly Weather Tucupita

    Today, 19 December, Wednesday

    Time Temperature Precipitation Wind Pressure Humidity
    00:00 +24°C° 0 mm 1 mps 760 mmHg 97%
    01:00 +22°C° 0 mm 0 mps 760 mmHg 98%
    02:00 +22°C° 0 mm 0 mps 759 mmHg 98%
    03:00 +22°C° 0 mm 0 mps 759 mmHg 98%
    04:00 +22°C° 0 mm 0 mps 759 mmHg 99%
    05:00 +22°C° 0 mm 0 mps 759 mmHg 99%
    06:00 +23°C° 0 mm 0 mps 760 mmHg 94%
    07:00 +26°C° 0 mm 1 mps 760 mmHg 90%
    08:00 +27°C° 0 mm 1 mps 760 mmHg 86%
    09:00 +28°C° 0.1 mm 1 mps 760 mmHg 78%
    10:00 +30°C° 0.1 mm 2 mps 760 mmHg 70%
    11:00 +32°C° 0.1 mm 2 mps 760 mmHg 62%
    12:00 +31°C° 0.7 mm 2 mps 760 mmHg 66%
    13:00 +31°C° 0.7 mm 2 mps 759 mmHg 69%
    14:00 +31°C° 0.7 mm 2 mps 758 mmHg 73%
    15:00 +30°C° 0.4 mm 2 mps 758 mmHg 74%
    16:00 +30°C° 0.4 mm 2 mps 757 mmHg 76%
    17:00 +29°C° 0.4 mm 2 mps 757 mmHg 78%
    18:00 +28°C° 0 mm 2 mps 758 mmHg 83%
    19:00 +27°C° 0 mm 1 mps 758 mmHg 89%
    20:00 +25°C° 0 mm 1 mps 759 mmHg 94%
    21:00 +25°C° 0 mm 1 mps 759 mmHg 96%
    22:00 +25°C° 0 mm 1 mps 759 mmHg 97%
    23:00 +25°C° 0 mm 1 mps 759 mmHg 98%

    Tomorrow, 20 December, Thursday

    Time Temperature Precipitation Wind Pressure Humidity
    00:00 +24°C° 0 mm 1 mps 759 mmHg 98%
    01:00 +24°C° 0 mm 1 mps 759 mmHg 98%
    02:00 +22°C° 0 mm 0 mps 759 mmHg 99%
    03:00 +22°C° 0.4 mm 0 mps 759 mmHg 99%
    04:00 +22°C° 0.4 mm 0 mps 759 mmHg 99%
    05:00 +22°C° 0.4 mm 0 mps 759 mmHg 99%
    06:00 +25°C° 0.3 mm 1 mps 759 mmHg 97%
    07:00 +25°C° 0.3 mm 1 mps 760 mmHg 96%
    08:00 +26°C° 0.3 mm 1 mps 760 mmHg 94%
    09:00 +27°C° 0.2 mm 2 mps 760 mmHg 85%
    10:00 +29°C° 0.2 mm 2 mps 761 mmHg 77%
    11:00 +31°C° 0.2 mm 3 mps 761 mmHg 69%
    12:00 +31°C° 0.4 mm 3 mps 760 mmHg 67%
    13:00 +33°C° 0.4 mm 3 mps 759 mmHg 64%
    14:00 +33°C° 0.4 mm 3 mps 758 mmHg 62%
    15:00 +33°C° 0 mm 3 mps 757 mmHg 63%
    16:00 +31°C° 0 mm 2 mps 757 mmHg 63%
    17:00 +31°C° 0 mm 2 mps 757 mmHg 64%
    18:00 +29°C° 0 mm 2 mps 757 mmHg 71%
    19:00 +28°C° 0 mm 2 mps 758 mmHg 78%
    20:00 +26°C° 0 mm 2 mps 758 mmHg 85%
    21:00 +26°C° 0 mm 1 mps 759 mmHg 88%
    22:00 +25°C° 0 mm 1 mps 759 mmHg 92%
    23:00 +25°C° 0 mm 1 mps 759 mmHg 95%

    Day after tomorrow, 21 December, Friday

    Time Temperature Precipitation Wind Pressure Humidity
    00:00 +24°C° 0 mm 1 mps 759 mmHg 96%
    01:00 +24°C° 0 mm 1 mps 759 mmHg 97%
    02:00 +24°C° 0 mm 1 mps 758 mmHg 98%
    03:00 +24°C° 0 mm 1 mps 758 mmHg 98%
    04:00 +24°C° 0 mm 1 mps 758 mmHg 98%
    05:00 +24°C° 0 mm 1 mps 758 mmHg 98%
    06:00 +25°C° 0 mm 1 mps 759 mmHg 94%
    07:00 +26°C° 0 mm 1 mps 759 mmHg 89%
    08:00 +27°C° 0 mm 1 mps 760 mmHg 85%
    09:00 +29°C° 0 mm 2 mps 760 mmHg 75%
    10:00 +30°C° 0 mm 2 mps 760 mmHg 65%
    11:00 +33°C° 0 mm 3 mps 760 mmHg 55%
    12:00 +34°C° 0 mm 3 mps 759 mmHg 52%
    13:00 +35°C° 0 mm 3 mps 758 mmHg 49%
    14:00 +35°C° 0 mm 3 mps 757 mmHg 46%
    15:00 +34°C° 0 mm 3 mps 757 mmHg 50%
    16:00 +33°C° 0 mm 3 mps 757 mmHg 54%
    17:00 +31°C° 0 mm 2 mps 757 mmHg 58%
    18:00 +29°C° 0 mm 2 mps 757 mmHg 66%
    19:00 +28°C° 0 mm 2 mps 758 mmHg 74%
    20:00 +26°C° 0 mm 2 mps 758 mmHg 82%
    21:00 +25°C° 0 mm 1 mps 759 mmHg 87%
    22:00 +25°C° 0 mm 1 mps 759 mmHg 91%
    23:00 +24°C° 0 mm 1 mps 759 mmHg 95%

    22 December, Saturday

    Time Temperature Precipitation Wind Pressure Humidity
    00:00 +24°C° 0 mm 1 mps 759 mmHg 96%
    01:00 +24°C° 0 mm 1 mps 759 mmHg 97%
    02:00 +24°C° 0 mm 1 mps 758 mmHg 97%
    03:00 +24°C° 0.2 mm 1 mps 758 mmHg 97%
    04:00 +24°C° 0.2 mm 1 mps 758 mmHg 97%
    05:00 +24°C° 0.2 mm 1 mps 759 mmHg 97%
    06:00 +24°C° 0 mm 1 mps 759 mmHg 95%
    07:00 +25°C° 0 mm 1 mps 760 mmHg 92%
    08:00 +26°C° 0 mm 1 mps 760 mmHg 90%
    09:00 +28°C° 0 mm 2 mps 760 mmHg 78%
    10:00 +30°C° 0 mm 2 mps 760 mmHg 66%
    11:00 +32°C° 0 mm 2 mps 760 mmHg 54%
    12:00 +34°C° 0 mm 3 mps 759 mmHg 51%
    13:00 +34°C° 0 mm 3 mps 758 mmHg 48%
    14:00 +35°C° 0 mm 3 mps 757 mmHg 45%
    15:00 +34°C° 0 mm 3 mps 757 mmHg 49%
    16:00 +32°C° 0 mm 2 mps 757 mmHg 53%
    17:00 +31°C° 0 mm 2 mps 757 mmHg 57%
    18:00 +29°C° 0 mm 2 mps 757 mmHg 65%
    19:00 +27°C° 0 mm 2 mps 758 mmHg 73%
    20:00 +25°C° 0 mm 2 mps 758 mmHg 81%
    21:00 +25°C° 0 mm 2 mps 759 mmHg 86%
    22:00 +24°C° 0 mm 1 mps 759 mmHg 90%
    23:00 +23°C° 0 mm 1 mps 759 mmHg 95%

    23 December, Sunday

    Time Temperature Precipitation Wind Pressure Humidity
    00:00 +23°C° 0 mm 1 mps 759 mmHg 96%
    01:00 +23°C° 0 mm 1 mps 759 mmHg 97%
    02:00 +22°C° 0 mm 1 mps 759 mmHg 98%
    03:00 +20°C° 0 mm 0 mps 759 mmHg 98%
    04:00 +20°C° 0 mm 0 mps 759 mmHg 98%
    05:00 +20°C° 0 mm 0 mps 759 mmHg 98%
    06:00 +21°C° 0 mm 0 mps 759 mmHg 93%
    07:00 +22°C° 0 mm 0 mps 760 mmHg 89%
    08:00 +25°C° 0 mm 1 mps 760 mmHg 84%
    09:00 +28°C° 0 mm 1 mps 760 mmHg 74%
    10:00 +30°C° 0 mm 1 mps 760 mmHg 63%
    11:00 +32°C° 0 mm 2 mps 760 mmHg 53%
    12:00 +34°C° 0 mm 2 mps 759 mmHg 50%
    13:00 +35°C° 0 mm 2 mps 758 mmHg 47%
    14:00 +36°C° 0 mm 2 mps 757 mmHg 43%
    15:00 +34°C° 0 mm 2 mps 757 mmHg 49%
    16:00 +32°C° 0 mm 2 mps 757 mmHg 54%
    17:00 +31°C° 0 mm 2 mps 757 mmHg 59%
    18:00 +29°C° 0 mm 2 mps 757 mmHg 67%
    19:00 +28°C° 0 mm 2 mps 758 mmHg 75%
    20:00 +26°C° 0 mm 2 mps 758 mmHg 83%
    21:00 +26°C° 0 mm 2 mps 759 mmHg 86%
    22:00 +25°C° 0 mm 1 mps 759 mmHg 90%
    23:00 +24°C° 0 mm 1 mps 759 mmHg 94%

    24 December, Monday

    Time Temperature Precipitation Wind Pressure Humidity
    00:00 +24°C° 0 mm 1 mps 759 mmHg 95%
    01:00 +24°C° 0 mm 1 mps 759 mmHg 97%
    02:00 +24°C° 0 mm 1 mps 758 mmHg 98%
    03:00 +23°C° 0 mm 1 mps 758 mmHg 98%
    04:00 +23°C° 0 mm 1 mps 758 mmHg 98%
    05:00 +23°C° 0 mm 1 mps 758 mmHg 98%
    06:00 +24°C° 0 mm 1 mps 759 mmHg 93%
    07:00 +26°C° 0 mm 1 mps 759 mmHg 88%
    08:00 +27°C° 0 mm 1 mps 760 mmHg 83%
    09:00 +29°C° 0 mm 1 mps 760 mmHg 74%
    10:00 +30°C° 0 mm 2 mps 760 mmHg 65%
    11:00 +32°C° 0 mm 2 mps 759 mmHg 55%
    12:00 +34°C° 0.1 mm 2 mps 759 mmHg 53%
    13:00 +34°C° 0.1 mm 2 mps 758 mmHg 51%
    14:00 +35°C° 0.1 mm 3 mps 757 mmHg 49%
    15:00 +33°C° 0.2 mm 3 mps 757 mmHg 55%
    16:00 +31°C° 0.2 mm 2 mps 756 mmHg 60%
    17:00 +30°C° 0.2 mm 2 mps 756 mmHg 66%
    18:00 +29°C° 0 mm 2 mps 757 mmHg 73%
    19:00 +27°C° 0 mm 2 mps 757 mmHg 80%
    20:00 +26°C° 0 mm 2 mps 758 mmHg 87%
    21:00 +25°C° 0 mm 1 mps 758 mmHg 89%
    22:00 +25°C° 0 mm 1 mps 758 mmHg 92%
    23:00 +25°C° 0 mm 1 mps 758 mmHg 95%
    Show more